Regional Weather Roundup
Issued by NWS Wakefield, VA

Home | Current Version | Previous Version | Text Only | Print | Product List | Glossary On
Versions: 1 2 3 4 5 6 7 8 9 10 11 12 13 14 15 16 17 18 19 20 21 22 23 24 25 26 27 28 29 30 31 32 33 34 35 36 37 38 39 40 41 42 43 44 45 46 47 48 49 50
000
ASUS41 KAKQ 281115
RWRAKQ

REGIONAL WEATHER ROUNDUP
NATIONAL WEATHER SERVICE WAKEFIELD VA
700 AM EDT TUE APR 28 2015

Note: "fair" indicates few or no clouds below 12,000 feet with no
significant weather and/or obstructions to visibility. * = Denotes
station may not report precipitation (e.g., rain,snow,etc.),
thunder or fog.

VAZ042-051-052>054-056-281200-
NORTHERN VIRGINIA

CITY           SKY/WX    TMP DP  RH WIND       PRES   REMARKS
WASH NATIONAL  PTCLDY    50  36  58 W8        29.92R
DULLES         PTCLDY    45  35  68 NW9       29.93R
FORT BELVOIR   CLOUDY    48  36  63 NW12      29.92R
QUANTICO       MOCLDY    47  35  63 NW7       29.93R
FREDERICKSBRG* CLEAR     45  36  70 NW8       29.93R
STAFFORD*      CLEAR     40  33  73 CALM      29.97R
WARRENTON      PTCLDY    46  38  73 NW6       29.93R
CULPEPER*      PTCLDY    48  37  66 NW5       29.94S
MANASSAS*      CLOUDY    46  37  71 NW6       29.93R
LEESBURG*      CLEAR     46  39  76 NW10G16   29.94R
WINCHESTER     CLEAR     45  32  61 W3        29.96R
FRONT ROYAL*   FAIR      43  34  70 SW3       29.96R
LURAY*         FAIR      43  36  75 SE5       29.98R
$$

VAZ048-049-060>072-079>083-281200-
CENTRAL AND SOUTH CENTRAL VIRGINIA

CITY           SKY/WX    TMP DP  RH WIND       PRES   REMARKS
RICHMOND       FAIR      46  33  60 NW9       29.94R
CHESTERFIELD*  FAIR      43  27  52 NW7       29.96R
PETERSBURG*    CLEAR     46  34  63 W7        29.95R
HANOVER        FAIR      42  34  73 W6        29.96R
TAPPAHANNOCK*  FAIR      44  32  63 W3        29.92R
QUINTON*       FAIR      43  35  74 NW6       29.93R
CHARLOTTSVILLE CLEAR     44  33  65 W5        29.95R
GORDONSVILLE*  FAIR      38  33  80 CALM      29.94R
ORANGE*        CLEAR     45  34  65 SW3       29.96R
LOUISA*        CLEAR     39  36  87 W5        29.93R
BUMPASS*       FAIR      39  34  81 CALM      29.94S
FARMVILLE*     CLEAR     38  38 100 CALM      29.95S
CREWE*         FAIR      42  32  68 NW7       29.95R
FORT PICKETT*  FAIR      42  33  70 NW9       29.94S
CHASE CITY*    FAIR      38  38  97 CALM      29.97R
CLARKSVILLE*   FAIR      37  34  87 CALM      29.96R
SOUTH HILL*    CLEAR     37  33  85 CALM      30.01R
LAWRENCEVILLE* FAIR      41  34  76 CALM      29.94S
EMPORIA*       CLEAR     39  34  81 W3        29.96S
$$

VAZ088>098-281200-
SOUTHEAST VIRGINIA

CITY           SKY/WX    TMP DP  RH WIND       PRES   REMARKS
NORFOLK        CLEAR     49  36  61 NW8       29.89R
VIRGINIA BEACH CLEAR     51  39  63 NW10      29.89R
NORFOLK NAVAL  PTCLDY    51  36  56 NW14G24   29.91R
WEST POINT*    CLEAR     47  37  68 NW5       29.94R
SALUDA*        FAIR      47  38  73 NW5       29.91R
NEWPORT NEWS   CLEAR     48  35  60 NW12      29.91R
LANGLEY AFB    CLEAR     46  35  67 NW10      29.89R
FORT EUSTIS    CLEAR     48  37  67 N14G22    29.89R
WILLIAMSBURG*  CLEAR     46  37  71 NW7       29.93R
HR EXEC AP*    FAIR      43  36  75 W3        29.92R
FRANKLIN*      CLEAR     42  36  80 W6        29.93S
WAKEFIELD      CLEAR     45  35  68 W3        29.93R
$$

VAZ020-022-025-037-045-281200-
WEST CENTRAL AND SOUTHWEST VIRGINIA

CITY           SKY/WX    TMP DP  RH WIND       PRES   REMARKS
STAUNTON*      CLEAR     37  32  82 CALM      30.00R
WAYNESBORO*    PTSUNNY   40  31  70 SW3       29.98R
HOT SPRINGS VA CLEAR     32  27  83 W7        29.94R
LYNCHBURG      CLEAR     43  31  62 N6        29.98R
DANVILLE       CLEAR     42  34  73 NW7       29.98R
SOUTH BOSTON*  FAIR      34  32  94 CALM      29.98R
MARTINSVILLE   CLEAR     32  32 100 CALM      30.01S
ROANOKE        CLEAR     43  31  62 NW8       30.01R
BLACKSBURG     CLEAR     37  30  75 CALM      30.01R
DUBLIN*        PTCLDY    42  35  75 NW5       30.00S
MARION*        CLEAR     35  31  87 CALM      30.01S
HILLSVILLE*    CLEAR     38  32  80 N7        29.97R
RICHLANDS*     FAIR      37  15  39 N5        30.00R
WISE*          CLEAR     36  34  93 N5        30.00S
ABINGDON*      CLEAR     38  35  87 CALM      29.99S
$$

MDZ021>025-VAZ099-100-281200-
SOUTHERN MARYLAND AND THE DELMARVA PENINSULA

CITY           SKY/WX    TMP DP  RH WIND       PRES   REMARKS
PATUXENT RIVER MOCLDY    48  38  68 NW16G23   29.88R
BAY BRIDGE APT   N/A    N/A N/A N/A NW9       29.88R
LEONARDTOWN    CLOUDY    45  34  65 W7        29.91R
DOVER          MOCLDY    50  40  70 NW14G21   29.79R
GEORGETOWN     CLEAR     47  38  71 W8        29.84R
EASTON         PTCLDY    52  41  66 NW12      29.91R
CAMBRIDGE      CLEAR     52  41  66 W6        29.87R
SALISBURY      CLEAR     47  38  71 NW8       29.85R
OCEAN CITY     CLEAR     47  38  71 NW8       29.83R
WALLOPS ISLAND CLEAR     47  40  76 NW12      29.85R
ACCOMACK*      PTCLDY    50  14  23 NW10G21   29.86R
$$

NCZ012>017-030>032-281200-
NORTH CENTRAL AND EASTERN NORTH CAROLINA

CITY           SKY/WX    TMP DP  RH WIND       PRES   REMARKS
ROANOKE RAPIDS FAIR      43  34  70 CALM      29.95R
RALEIGH        PTCLDY    43  35  73 N3        29.96S
ELIZABETH CITY CLEAR     45  37  73 W9        29.91R
AHOSKIE*       CLEAR     41  36  81 CALM      29.95R
EDENTON*       CLEAR     47  38  72 NW9       29.92S
CURRITUCK*     CLEAR     43  36  76 W5        29.90R
KILL DEVIL HLS CLEAR     49  40  72 NW7       29.88R
MANTEO         CLEAR     49  39  68 N14G20    29.90R
CAPE HATTERAS  CLEAR     50  39  66 N9        29.89R
TARBORO*       FAIR      39  37  94 W3        29.96R
GOLDSBORO      CLEAR     47  36  64 N2        29.93R
WASHINGTON     CLEAR     43  37  80 CALM      29.94R
GREENVILLE     CLEAR     45  37  76 CALM      29.96S
NEW BERN       CLEAR     49  38  65 N7        29.95R
WILMINGTON     PTCLDY    47  37  68 N8        29.94R
$$

VAZ048-281200-
ELSEWHERE

CITY           SKY/WX    TMP DP  RH WIND       PRES   REMARKS
HARRISBURG PA  PTCLDY    49  37  63 NW10      29.89R
BALTIMORE      PTCLDY    47  37  68 W7        29.88R
ANNAPOLIS      CLOUDY    49  37  63 W6        29.89R
ANDREWS AFB    PTCLDY    47  36  67 NW8       29.89R
PHILADELPHIA   PTCLDY    52  39  61 NW9       29.83R
HENDERSON NC   CLEAR     41  33  74 CALM      29.96R
GREENSBORO     PTCLDY    41  34  76 CALM      29.97R
ROCKY MOUNT    CLEAR     42  37  82 NW6       29.95R
$$

VAZ100-281200-
MARINE

STATION/POSITION TIME  TEMP    WIND        PRES    WAVE   SWELL
                       AIR SEA DIR/SP/G            HT/PER HT/PER
                 (UTC) (F)     (DEG/KT/KT) (MB)    (FT/S) (FT/S)
BRANDYWINE LGT   1000   51 52  340/ 18/ 22 1008.9R
CAPE MAY NJ      1000   51 56  330/ 10/ 17 1008.4R
LEWES DE         1000   51 52  320/ 18/ 21 1009.1R
15NM E FENWICK I 1050   50 47              1008.8R   4/ 5
OCEAN-CITY-INLET 1000   48 51  320/ 12/ 15 1009.0R
WACHAPREAGUE VA  1000   49 56  320/  3/  8 1010.5R
THOMAS POINT MD  1100   49 53  300/ 11/ 13 1012.6R
GOOSES REEF MD   1100   49 53  330/ 16/ 17   N/A     2/ 3
COVE POINT MD    1000   49     340/ 17/ 21 1011.9R
SOLOMONS ISLAND  1000      56                N/A
BISHOPS HEAD MD  1000   48 52  330/ 11/ 17 1010.5R
PINEY POINT MD   1000          330/ 18/ 19   N/A
CAMBRIDGE MD     1000   51 58  310/ 11/ 15 1010.7R
LEWISETTA VA     1000   49 56              1011.6R
RAPPAHANNOCK LGT 1000          320/ 22/ 25 1011.4R
YORK RVR RNG VA  1000   48     320/ 16/ 19 1011.5R
YORKTOWN VA      1000   48 59  300/ 13/ 17 1011.8R
JAMESTOWN VA     1100   48 61  340/ 14/ 17 1012.0R
DOMINION TERM VA 1000   49      40/  4/ 10 1011.8R
KIPTOPEKE VA     1000      61  320/ 18/ 21   N/A
CHES BAY BRIDGE  1000   50 56  320/ 21/ 25 1011.0R
CAPE HENRY VA    1000   50     320/ 23/ 25 1009.9R
CHESAPEAKE LGHT  1000   50     330/ 22/ 26 1011.2R
WILLOUBY STN VA  1000   48     320/ 17/ 19 1012.4R
S CRANEY ISL VA  1000          330/ 12/ 19 1011.7R
CAPE HENRY BUOY  1028      51                N/A     5/ 5
OFFSHORE WE BUOY 1011      50                N/A     5/ 5
64NM E OF VA BCH 1050   52 54  330/ 23/ 27 1009.4R   6/ 5
DUCK PIER NC     1000   50 54  320/ 12/ 16 1010.2R
44056 DUCK FRF   1011      54                N/A     2/ 4
OREGON INLET NC  1000   50 58  320/  9/ 13 1011.0R
HATTERAS NC      1000   55 62  330/ 16/ 20 1010.9R
DIAMOND SHLS NC  1050   56 74  340/ 17/ 21 1011.6R   4/ 8   2/ 8
CAPE LOOKOUT NC  1100   52     350/ 14/ 15 1012.9R
$$



USA.gov is the U.S. government's official web portal to all federal, state and local government web resources and services.